00001 3.34 0.12 K0256 189.27520 73.98440 80.48632 10.58347 0.0791158 0.21420457 2.7664122 MPC 24219 4676 62 1839-1994 0.54 M-v 30 Bowell 0000 (1) Ceres 00002 4.13 0.11 K0256 175.41433 310.39441 173.17164 34.84247 0.2299373 0.21338599 2.7734826 MPC 24084 5482 63 1839-1993 0.55 M-c 28 Bowell 0000 (2) Pallas 00003 5.33 0.32 K0256 73.83333 247.99360 170.13259 12.97112 0.2588977 0.22623393 2.6674578 MPC 24084 4741 65 1839-1993 0.56 M-c 08 Bowell 0000 (3) Juno 00005 6.85 0.15 K0256 243.80426 357.71182 141.69276 5.36953 0.1930035 0.23882449 2.5728639 MPC 24219 702 51 1851-1993 0.66 M-c 08 Bowell 0000 (5) Astraea 00006 5.71 0.24 K0256 269.42312 238.92432 138.84765 14.76672 0.2014525 0.26090689 2.4255618 MPC 24219 3581 59 1869-1994 0.53 M-c 08 Bowell 0000 (6) Hebe 00007 5.51 0.15 K0256 282.04019 145.20149 259.86465 5.52400 0.2298998 0.26737119 2.3863070 MPC 24084 3313 57 1850-1993 0.57 M-c 08 Bowell 0000 (7) Iris 00008 6.49 0.28 K0256 124.13093 285.06919 111.03555 5.88734 0.1567210 0.30183398 2.2010199 0 MPO 25662 2438 102 1847-2000 0.54 M-v 38h Goffin 0000 (8) Flora 00009 6.28 0.17 K0256 60.09903 5.65064 68.99307 5.57686 0.1222881 0.26733319 2.3865331 0 MPO 25662 2131 96 1822-2001 0.54 M-v 38h Goffin 0000 (9) Metis 00010 5.43 0.15 K0256 131.34225 313.95822 283.65758 3.84387 0.1193565 0.17748744 3.1358670 0 MPC 35055 2261 104 1849-1999 0.53 M-v 38h Goffin 0000 (10) Hygiea 00013 6.74 0.15 K0256 149.46427 81.05685 43.32158 16.53787 0.0845982 0.23828562 2.5767413 0 MPO 2601 946 54 1850-2000 0.77 M-v 38h Williams 0000 (13) Egeria 00014 6.30 0.15 K0256 136.73671 96.48298 86.50473 9.10657 0.1678430 0.23706696 2.5855644 0 MPO 595 1765 84 1851-2000 0.54 M-v 38h Goffin 0000 (14) Irene 00015 5.28 0.23 K0256 303.06205 97.10312 293.49190 11.74793 0.1855895 0.22917124 2.6446161 0 MPO 25662 2071 91 1851-2001 0.52 M-v 38h Goffin 0000 (15) Eunomia 00016 5.90 0.20 K0256 145.24151 228.34171 150.35632 3.09535 0.1396548 0.19760860 2.9192111 0 MPC 35055 1831 96 1852-1998 0.53 M-v 38h Goffin 0000 (16) Psyche 00018 6.51 0.25 K0256 310.64223 227.70789 150.56088 10.12713 0.2174714 0.28330587 2.2959671 MPC 24085 2877 51 1870-1993 0.52 M-c 08 Bowell 0000 (18) Melpomene 00020 6.50 0.25 K0256 284.12799 255.77875 206.59936 0.70596 0.1428115 0.26365099 2.4087022 0 MPO 25662 1670 96 1852-2001 0.54 M-v 38h Goffin 0000 (20) Massalia 00025 7.83 0.15 K0256 329.15064 90.22645 214.30482 21.57607 0.2566691 0.26515041 2.3996129 0 MPC 25716 1300 68 1853-1993 0.77 M-v 38d Goffin 0000 (25) Phocaea 00027 7.0 0.15 K0256 75.60847 356.48199 94.81425 1.58374 0.1719980 0.27420716 2.3464800 0 MPO 4876 1618 79 1853-2000 0.53 M-v 38h Goffin 0000 (27) Euterpe 00028 7.09 0.15 K0256 35.02731 342.29786 144.51740 9.40191 0.1491665 0.21291828 2.7775427 MPC 24219 544 55 1870-1992 0.62 M-c 08 Bowell 0000 (28) Bellona 00029 5.85 0.20 K0256 228.81581 62.31125 356.54857 6.10123 0.0716067 0.24131446 2.5551348 MPC 23111 707 54 1868-1992 0.58 M-c 08 Bowell 0000 (29) Amphitrite 00030 7.57 0.15 K0256 150.44120 86.26881 307.93236 2.09853 0.1274266 0.27099213 2.3650025 MPC 24085 509 48 1869-1994 0.70 M-c 08 Bowell 0000 (30) Urania 00032 7.56 0.15 K0256 3.64580 339.50993 220.59815 5.52970 0.0818857 0.23691272 2.5866865 1 MPC 27086 524 81 1854-1993 1.05 M-v 38d Goffin 0000 (32) Pomona 00042 7.53 0.15 K0256 43.48299 235.91509 84.56840 8.53853 0.2236532 0.25847866 2.4407292 0 MPO 9657 1078 79 1856-2000 0.53 M-v 38h Goffin 0000 (42) Isis 00043 7.93 0.11 K0256 70.00309 15.70759 265.02578 3.47000 0.1686933 0.30146621 2.2028096 0 MPC 25032 882 78 1857-1994 1.01 M-c 08 Goffin 0000 (43) Ariadne 00044 7.03 0.46 K0256 263.74416 342.74162 131.61347 3.70302 0.1485643 0.26128585 2.4232159 0 MPO 3854 1410 81 1857-2000 0.52 M-v 38h Goffin 0000 (44) Nysa 00046 8.36 0.06 K0256 348.93743 176.00635 181.22292 2.33630 0.1716401 0.24560711 2.5252755 1 MPC 25186 741 82 1857-1992 0.95 M-c 08 Goffin 0000 (46) Hestia 00051 7.35 0.08 K0256 215.92743 3.06964 176.20146 9.96833 0.0672001 0.27097882 2.3650799 0 MPC 31001 3595 87 1858-1997 0.52 M-v 38h Goffin 0000 (51) Nemausa 00052 6.31 0.18 K0256 196.68107 342.73975 129.02243 7.46868 0.1013440 0.18056312 3.1001546 MPC 24371 1231 82 1858-1994 0.80 M-c 08 Goffin 0000 (52) Europa 00063 7.55 0.25 K0256 291.04423 296.03033 337.96026 5.78826 0.1259520 0.26589531 2.3951291 0 MPC 35405 940 76 1861-1998 0.53 M-v 38h Goffin 0000 (63) Ausonia 00065 6.62 0.01 K0256 16.39599 105.93189 155.82097 3.54680 0.1038533 0.15465820 3.4373261 MPC 24085 447 50 1870-1993 0.65 M-c 08 Bowell 0000 (65) Cybele 00068 6.78 0.05 K0256 25.42756 303.81036 44.43841 7.95575 0.1852174 0.21240438 2.7820210 MPC 24548 456 46 1879-1992 0.59 M-c 08 Bowell 0000 (68) Leto 00071 7.30 0.40 K0256 7.47800 267.41674 316.13186 23.25596 0.1753675 0.21553093 2.7550510 0 MPO 2601 292 41 1864-2000 0.86 M-v 38h Williams 0000 (71) Niobe 00072 8.94 0.15 K0256 16.26788 102.15210 208.20578 5.41298 0.1211833 0.28893741 2.2660363 MPC 24219 105 33 1884-1994 0.89 M-c 08 Bowell 0000 (72) Feronia 00079 7.96 0.25 K0256 70.79114 200.58625 206.82771 4.62157 0.1925551 0.25782187 2.4448725 MPC 22665 844 78 1863-1991 1.05 M-c 08 Goffin 0000 (79) Eurynome 00109 8.75 0.04 K0256 312.76758 56.74052 3.23380 7.88253 0.2954570 0.22243318 2.6977581 MPC 23226 94 34 1869-1993 0.89 M-v 38 Bowell 0000 (109) Felicitas 00111 8.02 0.15 K0256 44.69538 165.65578 305.91112 4.92468 0.1017242 0.23590789 2.5940265 0 MPO 4876 405 52 1870-2000 0.55 M-v 38h Goffin 0000 (111) Ate 00139 7.78 0.15 K0256 35.56087 165.94588 2.03953 10.90353 0.1721310 0.21227174 2.7831798 0 MPO 12096 416 58 1874-2001 0.55 M-v 38h Goffin 0000 (139) Juewa 00192 7.13 0.03 K0256 158.32022 29.84814 343.46719 6.82574 0.2475756 0.26480314 2.4017103 0 MPC 31001 864 67 1847-1996 0.53 M-v 38h Goffin 0000 (192) Nausikaa 00196 6.54 0.15 K0256 53.61886 205.70216 72.65344 7.25329 0.0246588 0.17940361 3.1134980 0 MPO 2601 742 58 1879-2000 0.65 M-v 38h Williams 0000 (196) Philomela 00201 8.43 0.24 K0256 350.67162 180.45740 157.18087 5.76219 0.1815401 0.22488776 2.6780921 0 MPC 25716 250 49 1879-1995 0.91 M-v 38d Goffin 0000 (201) Penelope 00230 7.35 0.27 K0256 162.13985 139.33137 239.99124 9.43547 0.0619978 0.26812429 2.3818365 0 MPC 31001 797 64 1882-1996 0.53 M-v 38h Goffin 0000 (230) Athamantis 00349 5.93 0.37 K0256 3.16946 345.34754 32.63205 8.24448 0.0855723 0.19704888 2.9247364 0 MPC 31001 1414 72 1892-1996 0.53 M-v 38h Goffin 0000 (349) Dembowska 00354 6.44 0.37 K0256 107.95830 6.63556 140.51849 18.38341 0.1124522 0.21037620 2.7998728 0 MPC 31001 1700 75 1893-1997 0.55 M-v 38h Goffin 0000 (354) Eleonora 00444 7.83 0.22 K0256 341.83966 154.09480 195.90764 10.26749 0.1750018 0.21369577 2.7708016 MPC 22573 509 60 1899-1992 1.07 M-c 08 Goffin 0000 (444) Gyptis 00471 6.73 0.37 K0256 80.80030 314.81517 84.11952 14.98728 0.2333741 0.20095303 2.8867312 0 MPC 31001 899 60 1901-1997 0.52 M-v 38h Goffin 0000 (471) Papagena 00532 5.81 0.26 K0256 99.45536 76.87171 107.65563 16.30873 0.1776508 0.21353487 2.7721933 0 MPC 31002 2223 69 1904-1997 0.53 M-v 38h Goffin 0000 (532) Herculina 00654 8.52 0.15 K0256 19.47926 213.91440 278.61211 18.12149 0.2318620 0.28320545 2.2965098 MPC 24086 321 42 1908-1993 0.91 M-c 08 Goffin 0000 (654) Zelinda 00675 7.91 0.15 K0256 66.91430 152.27385 263.45298 9.80435 0.2047012 0.21399781 2.7681938 0 MPO 12096 320 43 1908-2000 0.53 M-v 38h Goffin 0000 (675) Ludmilla